Lexington Weather

Lexington, Massachusetts, USA

48°F
12/8/2022 3:24pm 
  • Lexington Conditions: Clear
  • Temperature: 47.5°F / 8.6°CColder 1.8°F than last hour.
  • Dew Point: 34.7°FDecreased 0.9°Fsince last hour.
  • Relative Humidity: 61%Increased 2.0% since last hour.
  • Wind: Wind from NNE NNE Calm, 10-min avg: 2 mph, gust: 8 mph
  • Barometer: 30.09 inRising 0.03  inHg/hr Rising Slowly
  • Visibility: 10 miles
  • Rain Today: 0.00 in
  •   

Warning: Undefined variable $rc in /homepages/6/d276339138/htdocs/weather/20190804/ssi/nwsProduct.php on line 323

Warning: Undefined variable $rc in /homepages/6/d276339138/htdocs/weather/20190804/ssi/nwsProduct.php on line 325

Warning: Undefined variable $rc in /homepages/6/d276339138/htdocs/weather/20190804/ssi/nwsProduct.php on line 323

Warning: Undefined variable $rc in /homepages/6/d276339138/htdocs/weather/20190804/ssi/nwsProduct.php on line 325

Warning: Undefined variable $rc in /homepages/6/d276339138/htdocs/weather/20190804/ssi/nwsProduct.php on line 323

Warning: Undefined variable $rc in /homepages/6/d276339138/htdocs/weather/20190804/ssi/nwsProduct.php on line 325

Warning: Undefined variable $rc in /homepages/6/d276339138/htdocs/weather/20190804/ssi/nwsProduct.php on line 323

Warning: Undefined variable $rc in /homepages/6/d276339138/htdocs/weather/20190804/ssi/nwsProduct.php on line 325

Warning: Undefined variable $rc in /homepages/6/d276339138/htdocs/weather/20190804/ssi/nwsProduct.php on line 323

Warning: Undefined variable $rc in /homepages/6/d276339138/htdocs/weather/20190804/ssi/nwsProduct.php on line 325

Warning: Undefined variable $rc in /homepages/6/d276339138/htdocs/weather/20190804/ssi/nwsProduct.php on line 323

Warning: Undefined variable $rc in /homepages/6/d276339138/htdocs/weather/20190804/ssi/nwsProduct.php on line 325

Warning: Undefined variable $rc in /homepages/6/d276339138/htdocs/weather/20190804/ssi/nwsProduct.php on line 323

Warning: Undefined variable $rc in /homepages/6/d276339138/htdocs/weather/20190804/ssi/nwsProduct.php on line 325

Regional Weather Roundup
for Boston, MA

        
000
ASUS41 KBOX 071210
RWRBOX

REGIONAL WEATHER ROUNDUP
NATIONAL WEATHER SERVICE BOSTON/NORTON MA
700 AM EST WED DEC 07 2022

NOTE:  "FAIR" INDICATES FEW OR NO CLOUDS BELOW 12,000 FEET WITH NO 
SIGNIFICANT WEATHER AND/OR OBSTRUCTIONS TO VISIBILITY.

MAZALL-071300-
EASTERN MASSACHUSETTS
  
CITY           SKY/WX    TMP DP  RH WIND       PRES   REMARKS
BOSTON         LGT RAIN  50  48  93 SE10      30.28F                  
6HR MIN TEMP:  48; 6HR MAX TEMP:  50; 6HR PCP:  0.61;                

BEVERLY        LGT RAIN  50  49  96 SE15G26   30.27F FOG              
LAWRENCE       LGT RAIN  51  48  89 VRB6      30.28F FOG              
BEDFORD        LGT RAIN  52  49  89 SE8       30.25F                  
NORWOOD        LGT RAIN  53  50  89 S8        30.27F FOG              
MARSHFIELD       N/A     50  48  93 SE13      30.29F FOG              
PLYMOUTH       LGT RAIN  52  49  89 SE7       30.29F                  
TAUNTON          N/A    N/A N/A N/A MISG      30.28F                  
NEW BEDFORD    LGT RAIN  51  51 100 SE13      30.29F FOG              
$$

MAZALL-071300-
CAPE COD AND THE ISLANDS
  
CITY           SKY/WX    TMP DP  RH WIND       PRES   REMARKS
FALMOUTH       DRIZZLE   50  50 100 SE13G22   30.32F                  
HYANNIS        LGT RAIN  51  51 100 SE7G17    30.31F                  
CHATHAM        RAIN      53  51  93 SE8       30.35S FOG              
PROVINCETOWN   LGT RAIN  50  50 100 SE13      30.32F                  
NANTUCKET      RAIN      53  52  96 SE9       30.34S FOG              
MARTHAS VNYRD  LGT RAIN  52  51  97 SE13G20   30.31F FOG              
$$
 
MAZALL-071300-
CENTRAL AND WESTERN MASSACHUSETTS
  
CITY           SKY/WX    TMP DP  RH WIND       PRES   REMARKS
WORCESTER      RAIN      52  50  93 SE13      30.22F FOG              
6HR MIN TEMP:  49; 6HR MAX TEMP:  52; 6HR PCP:  0.74;                

FITCHBURG      LGT RAIN  48  47  96 CALM      30.25F FOG              
ORANGE         LGT RAIN  52  50  93 SE3       30.21S FOG              
SPRINGFIELD    DRIZZLE   55  55  99 S9        30.17S                  
WESTFIELD      LGT RAIN  54  53  97 S8        30.19S FOG              
NORTH ADAMS    CLOUDY    53  51  93 E8        30.16F                  
PITTSFIELD     CLOUDY    53  51  93 CALM      30.15S FOG              
$$
 
RIZALL-071300-
RHODE ISLAND
  
CITY           SKY/WX    TMP DP  RH WIND       PRES   REMARKS
PROVIDENCE     LGT RAIN  52  52 100 SE15      30.26F FOG              
6HR MIN TEMP:  51; 6HR MAX TEMP:  52; 6HR PCP:  0.50;                

NEWPORT        LGT RAIN  52  51  97 SE15G25   30.27F FOG              
BLOCK ISLAND   LGT RAIN  54  53  97 SE16      30.27S                  
SMITHFIELD     LGT RAIN  52  52 100 SE8       30.26F FOG              
WESTERLY       LGT RAIN  55  54  96 SE9G20    30.26F FOG              
$$
 
CTZALL-071300-
CONNECTICUT
  
CITY           SKY/WX    TMP DP  RH WIND       PRES   REMARKS
BRADLEY INTL   DRIZZLE   56  54  93 S14       30.20S                  
6HR MIN TEMP:  53; 6HR MAX TEMP:  56; 6HR PCP:  0.68;                

HARTFORD       RAIN      57  55  93 S7        30.20S FOG              
BRIDGEPORT     RAIN      55  54  96 S13       30.20S FOG              
DANBURY        CLOUDY    58  55  90 S5        30.20R                  
GROTON         LGT RAIN  57  54  89 SE15      30.24F FOG              
NEW HAVEN      CLOUDY    57  55  93 S10       30.20F FOG              
CHESTER        RAIN      55  55 100 S13       30.22F                  
MERIDEN        LGT RAIN  57  54  89 S10       30.20S                  
WILLIMANTIC    LGT RAIN  55  55 100 S9        30.22F FOG              
OXFORD         LGT RAIN  54  54 100 S7        30.20S VSB 3/4          
$$

MEZ002-015-021-024-NHZ003-005-008-011-012-014-VTZ005-008-071300-
NORTHERN NEW ENGLAND
  
CITY           SKY/WX    TMP DP  RH WIND       PRES   REMARKS
PORTLAND ME    RAIN      47  46  97 SE9       30.32F FOG              
6HR MIN TEMP:  46; 6HR MAX TEMP:  47; 6HR PCP:  0.27;                

BANGOR ME      LGT RAIN  45  44  97 E6        30.38F FOG              
CONCORD NH     LGT RAIN  48  47  96 SE6       30.25F FOG              
MANCHESTER NH  LGT RAIN  50  48  93 SE13G20   30.24F FOG              
NASHUA NH      LGT RAIN  49  50 100 SE7       30.26F                  
PORTSMOUTH NH  LGT RAIN  49  48  96 SE17      30.28F FOG              
JAFFREY NH     LGT RAIN  50  46  86 S6        30.22S                  
KEENE NH       LGT RAIN  51  49  92 S7          N/A                   
BURLINGTON VT  LGT RAIN  48  47  96 SE5       30.11F                  
MT. WASHINGTON LGT RAIN  34  34 100 S55G63      N/A  VSB 0   WCI  16  
$$

NYZ052-076-071300-
EASTERN NEW YORK
  
CITY           SKY/WX    TMP DP  RH WIND       PRES   REMARKS
ALBANY         CLOUDY    56  54  93 S10       30.14R                  
6HR MIN TEMP:  53; 6HR MAX TEMP:  56; 6HR PCP:  0.09;                

NEW YORK CITY  LGT RAIN  56  54  93 S6        30.19S FOG              
6HR MIN TEMP:  56; 6HR MAX TEMP:  57; 6HR PCP:  0.22;                

$$
 
ANZALL-071300-
MARINE OBSERVATIONS
  
STATION/POSITION TIME  TEMP    WIND        PRES    VSBY  WAVE
                       AIR SEA DIR/SP/G                  HT/PER
                 (UTC) (F)     (DEG/KT/KT) (MB)    (MI)  (FT/S)
BOSTON BUOY      1150      50  130/ 19/ 23 1026.2F         5/ 5
BUZZARDS BAY     1100   52     130/ 22/ 24 1025.7F
NANTUCKET SOUND  1150   51 49  120/ 14/ 16 1026.8F         1/ 3
MASS BAY-STELLWA 1004   50 50  130/ 19/ 23 1025.9F  1 5/8  5/ 6
ISLE OF SHOALS   1100   48     130/ 22/ 25 1025.3F
S OF BLOCK IS    1156      55                N/A           6/11
$$

......................KEY.........................
  SKY/WX - SKY CONDITION/PRESENT WEATHER
  TMP    - TEMPERATURE IN FAHRENHEIT
  DWPT   - DEWPOINT IN FAHRENHEIT
  RH     - RELATIVE HUMIDITY IN PERCENT
  WIND   - DIRECTION AND SPEED IN MPH
  PRES   - MEAN SEA LEVEL PRESSURE IN INCHES OF HG
  WCI    - WIND CHILL INDEX
  VSB    - VISIBILITY IN MILES
  HX     - HEAT INDEX
  TC     - TEMPERATURE IN CELSIUS
  VRB    - VARIABLE WIND DIRECTION
  N/A    - NOT AVAILABLE
  
      

Other recent Regional Weather Roundups

Thu Dec 8, 3:10pm

Thu Dec 8, 2:10pm

Thu Dec 8, 1:10pm

Thu Dec 8, 12:10pm

Thu Dec 8, 11:10am

Thu Dec 8, 10:10am

Thu Dec 8, 9:10am

Thu Dec 8, 8:10am

Thu Dec 8, 7:10am

Thu Dec 8, 6:10am

Thu Dec 8, 5:10am

Thu Dec 8, 4:10am

Thu Dec 8, 3:10am

Thu Dec 8, 2:10am

Thu Dec 8, 1:10am

Thu Dec 8, 12:10am

Wed Dec 7, 11:10pm

Wed Dec 7, 10:10pm

Wed Dec 7, 9:10pm

Wed Dec 7, 8:10pm

Wed Dec 7, 7:10pm

Wed Dec 7, 6:10pm

Wed Dec 7, 5:10pm

Wed Dec 7, 4:10pm

Wed Dec 7, 3:10pm

Wed Dec 7, 2:10pm

Wed Dec 7, 1:10pm

Wed Dec 7, 12:10pm

Wed Dec 7, 11:10am

Wed Dec 7, 10:10am

Wed Dec 7, 9:10am

Wed Dec 7, 8:10am

Wed Dec 7, 6:10am

Wed Dec 7, 5:10am

Wed Dec 7, 4:10am

Wed Dec 7, 3:10am

Wed Dec 7, 2:10am

Wed Dec 7, 1:10am

Wed Dec 7, 12:10am

Tue Dec 6, 11:10pm

Tue Dec 6, 10:10pm

Tue Dec 6, 9:10pm

Tue Dec 6, 8:10pm

Tue Dec 6, 7:10pm

Tue Dec 6, 6:10pm

Tue Dec 6, 5:10pm

Tue Dec 6, 4:10pm

Tue Dec 6, 3:10pm

Tue Dec 6, 2:10pm

Tue Dec 6, 1:10pm

Tue Dec 6, 12:10pm

Tue Dec 6, 11:10am

Tue Dec 6, 10:10am

Tue Dec 6, 9:10am

Tue Dec 6, 8:10am

Tue Dec 6, 7:10am

Tue Dec 6, 6:10am

Tue Dec 6, 5:10am

Tue Dec 6, 4:10am

Tue Dec 6, 3:10am

Tue Dec 6, 2:10am

Tue Dec 6, 1:10am

Tue Dec 6, 12:10am

Mon Dec 5, 11:10pm

Mon Dec 5, 10:10pm

Mon Dec 5, 9:10pm

Mon Dec 5, 8:10pm

Mon Dec 5, 7:10pm

Mon Dec 5, 6:10pm

Mon Dec 5, 5:10pm

Mon Dec 5, 4:10pm

Mon Dec 5, 3:10pm

Mon Dec 5, 2:10pm

Mon Dec 5, 1:10pm

Mon Dec 5, 12:10pm

Mon Dec 5, 11:10am

Mon Dec 5, 10:10am

Mon Dec 5, 9:10am

Mon Dec 5, 8:10am

Mon Dec 5, 7:10am

Mon Dec 5, 6:10am

Mon Dec 5, 5:10am

Mon Dec 5, 4:10am

Mon Dec 5, 3:10am

Mon Dec 5, 2:10am

Mon Dec 5, 1:10am

Mon Dec 5, 12:10am

Sun Dec 4, 11:10pm

Sun Dec 4, 10:10pm

Sun Dec 4, 9:10pm

Sun Dec 4, 8:10pm

Sun Dec 4, 7:10pm

Sun Dec 4, 6:10pm

Sun Dec 4, 5:10pm

Sun Dec 4, 4:10pm

Sun Dec 4, 3:10pm

Sun Dec 4, 2:10pm

Sun Dec 4, 1:10pm

Sun Dec 4, 12:10pm

Sun Dec 4, 11:10am

Sun Dec 4, 10:10am

Sun Dec 4, 9:10am

Sun Dec 4, 8:10am

Sun Dec 4, 7:10am

Sun Dec 4, 6:10am

Sun Dec 4, 5:10am

Sun Dec 4, 4:10am

Sun Dec 4, 3:10am

Sun Dec 4, 2:10am

Sun Dec 4, 1:10am

Sun Dec 4, 12:10am

Sat Dec 3, 11:10pm

Sat Dec 3, 10:10pm

Sat Dec 3, 9:10pm

Sat Dec 3, 8:10pm

Sat Dec 3, 7:10pm

Sat Dec 3, 6:10pm

Sat Dec 3, 5:10pm

Sat Dec 3, 4:10pm

Sat Dec 3, 3:10pm

Sat Dec 3, 2:10pm

Sat Dec 3, 1:10pm

Sat Dec 3, 12:10pm

Sat Dec 3, 11:10am

Sat Dec 3, 10:10am

Sat Dec 3, 9:10am

Sat Dec 3, 8:10am

Sat Dec 3, 7:10am

Sat Dec 3, 6:10am

Sat Dec 3, 5:10am

Sat Dec 3, 4:10am

Sat Dec 3, 3:10am

Sat Dec 3, 2:10am

Sat Dec 3, 1:10am

Sat Dec 3, 12:10am

Fri Dec 2, 11:10pm

Fri Dec 2, 10:10pm

Fri Dec 2, 9:10pm

Fri Dec 2, 8:10pm

Fri Dec 2, 7:10pm

Fri Dec 2, 6:10pm

Fri Dec 2, 5:10pm

Fri Dec 2, 4:10pm

Fri Dec 2, 3:10pm

Fri Dec 2, 2:10pm

Fri Dec 2, 1:10pm

Fri Dec 2, 12:10pm

Fri Dec 2, 11:10am

Fri Dec 2, 10:10am

Fri Dec 2, 9:10am

Fri Dec 2, 8:10am

Fri Dec 2, 7:10am

Fri Dec 2, 6:10am

Fri Dec 2, 5:10am

Fri Dec 2, 4:10am

Fri Dec 2, 3:10am

Fri Dec 2, 2:10am

Fri Dec 2, 1:10am

Fri Dec 2, 12:10am

Thu Dec 1, 11:10pm

Thu Dec 1, 10:10pm

Thu Dec 1, 9:10pm

Thu Dec 1, 8:10pm

Thu Dec 1, 7:10pm

Thu Dec 1, 6:10pm

Thu Dec 1, 5:10pm

Thu Dec 1, 4:10pm

Meta data:

ID: d8077e68-af0c-41e5-9506-37671489a9f4
Link: https://api.weather.gov/products/d8077e68-af0c-41e5-9506-37671489a9f4